Wind_Speed
59 59 60 60 61 61 62 63 63 63 63 63 63 63 62 61 60 59 56 54 50 46 43 39 36 33 31 29 28 27 27 28 30 32 35 39 42 42 41 40 41 44 48 51 53 55 56 58 59 59 59 59 59 59 60 60 61 62 64 66 67 68 68 69 69 70 70 70 70 70 70 70 70 70 70 71 72 72 73 74 75 75 75 76 76 76
59 59 60 60 60 61 62 62 62 62 62 62 61 61 60 60 59 58 56 53 50 47 43 40 36 33 30 29 27 26 25 24 25 27 30 34 38 39 40 41 43 47 50 51 53 55 57 59 61 61 61 61 61 61 60 60 60 62 63 65 66 67 67 68 69 70 70 71 71 71 70 70 70 70 70 71 71 72 72 73 73 74 74 75 75 76
58 59 60 60 60 61 61 61 62 62 61 60 60 59 58 58 57 56 55 53 51 48 44 40 37 34 31 29 27 26 24 23 22 22 24 29 33 37 39 42 45 48 50 52 54 57 59 62 63 64 64 64 64 64 63 62 62 63 64 65 65 66 66 67 68 69 70 71 71 71 71 70 70 70 71 71 72 72 71 71 72 73 73 74 75 75
58 59 60 60 60 60 60 61 61 61 60 59 58 58 57 56 55 54 53 52 50 47 45 41 38 35 32 29 28 26 24 23 21 20 21 24 28 32 36 40 43 46 49 52 55 58 61 63 65 66 66 66 67 66 66 66 66 66 67 67 67 67 67 68 68 69 70 71 72 72 72 72 72 72 72 73 74 74 74 74 74 74 75 75 76 76
58 59 60 60 61 61 60 60 60 60 60 59 58 57 55 55 54 53 52 50 49 47 45 42 39 36 33 30 28 26 25 23 22 21 21 22 24 27 31 34 38 41 45 48 52 55 59 61 63 65 66 67 67 68 69 70 71 71 71 71 70 70 70 70 70 71 71 72 73 73 74 74 74 74 75 75 76 77 77 78 78 78 78 78 79 79
58 59 59 60 60 61 60 60 60 60 59 58 57 56 55 54 52 51 50 49 47 46 44 42 39 36 34 31 29 27 25 24 23 23 23 23 25 26 28 31 34 37 40 43 46 50 53 56 59 62 64 66 67 69 71 72 74 74 74 74 74 74 74 74 74 74 74 74 75 75 76 76 77 77 77 78 78 79 80 81 81 82 82 82 82 83
58 58 59 60 61 61 60 60 59 59 59 58 57 56 55 53 52 51 49 48 46 44 43 41 39 37 34 32 30 28 26 25 24 24 24 24 26 27 29 30 32 34 36 39 41 44 47 50 54 57 60 63 66 68 71 73 74 75 76 76 77 77 78 78 78 78 78 78 78 78 78 78 79 79 80 80 81 81 82 83 84 84 85 85 85 86
58 59 59 60 61 61 61 60 60 59 58 58 57 56 55 54 52 51 49 47 45 44 42 40 38 36 34 32 30 28 27 25 24 24 24 24 25 27 28 30 32 33 35 37 39 41 43 46 48 51 54 58 61 65 68 70 72 73 75 76 77 78 79 80 81 81 81 81 81 82 82 82 82 82 82 83 83 84 85 85 86 86 86 87 87 88
58 59 59 60 60 61 61 61 60 59 58 58 57 57 56 55 53 51 50 48 46 44 42 40 38 36 34 32 30 29 27 26 25 24 24 24 25 26 27 29 31 33 34 36 38 39 41 43 45 47 50 53 56 59 62 64 67 69 71 73 75 77 79 80 82 83 83 84 85 85 85 86 86 86 86 86 87 87 87 88 88 89 89 89 90 90
58 59 59 60 60 61 61 61 61 60 59 58 57 57 56 55 54 53 51 49 47 45 42 40 38 36 34 32 31 29 28 27 26 25 25 25 25 26 27 28 30 32 33 35 37 38 40 42 43 45 47 49 52 54 57 59 61 64 66 69 71 74 76 78 80 82 83 84 85 86 87 88 88 89 89 89 90 90 91 91 91 92 92 92 92 93
58 59 59 60 60 60 61 61 61 60 60 59 58 57 56 56 55 54 52 51 49 46 44 42 40 38 36 34 32 30 29 28 27 27 26 26 26 26 27 28 29 31 32 34 35 37 39 41 42 44 46 48 50 52 54 56 58 60 62 65 67 70 72 75 77 79 80 82 83 84 86 87 88 89 89 90 91 91 92 93 93 94 94 94 94 95
59 59 60 60 60 61 60 60 60 60 60 59 59 58 57 56 55 55 54 52 50 49 47 45 43 41 39 37 35 34 32 31 30 29 28 28 28 28 28 29 29 30 31 32 34 35 37 39 41 43 45 47 48 50 52 54 56 58 60 62 64 66 69 71 73 74 76 77 79 80 82 84 85 86 87 89 90 91 91 92 93 94 94 95 95 96
59 60 60 61 61 61 60 60 60 60 59 59 59 59 58 57 56 55 54 53 52 51 49 47 46 44 42 41 39 38 36 35 34 33 32 31 31 31 31 31 32 32 32 33 34 35 36 37 39 41 43 45 46 48 50 52 54 56 58 60 61 63 65 67 68 70 71 73 74 76 77 79 81 82 84 85 87 88 89 90 91 92 92 93 94 94
60 60 61 61 61 61 61 60 60 60 59 59 58 58 58 57 57 56 55 55 53 52 51 50 48 47 45 44 43 42 40 40 39 38 37 36 36 35 35 35 35 35 36 36 37 37 38 39 40 41 42 43 45 46 48 49 51 53 55 57 58 60 62 63 65 66 67 69 70 71 73 74 76 78 79 81 82 83 85 86 87 88 89 90 90 91
60 61 61 61 62 61 61 60 60 59 59 58 58 58 57 57 57 56 56 55 55 54 53 52 50 49 48 47 45 44 44 43 43 42 41 41 40 39 39 39 40 40 40 40 41 41 41 42 43 43 44 44 45 46 47 48 50 51 53 54 56 57 59 60 61 63 64 65 66 68 69 70 72 73 75 76 77 79 80 81 82 83 84 85 86 86
61 61 61 62 62 61 61 60 60 60 59 59 58 57 57 57 57 56 56 56 55 55 54 53 52 51 50 49 48 47 46 46 45 45 44 44 43 43 42 43 43 44 44 44 45 45 45 46 47 47 48 48 48 49 50 50 51 52 53 54 55 57 58 59 60 61 62 63 64 65 67 68 69 70 71 72 73 75 76 77 78 79 80 80 81 82
61 61 61 61 62 61 61 61 60 60 59 59 58 58 57 57 57 56 56 56 56 55 55 54 54 53 52 51 50 49 48 48 47 47 47 46 46 45 45 45 46 46 47 47 48 48 49 49 50 50 51 51 52 53 53 54 55 55 56 57 57 58 59 60 61 62 62 63 64 65 66 67 68 69 70 71 72 73 73 74 75 76 77 78 78 79
61 61 61 61 61 61 61 61 60 60 60 59 59 59 58 58 57 57 56 56 56 56 55 55 54 54 53 53 52 51 50 50 50 50 50 49 48 47 47 47 48 49 49 50 50 51 51 52 53 53 54 54 55 56 56 57 58 58 59 59 60 61 61 62 63 63 64 65 66 67 67 68 69 70 70 71 72 72 73 74 75 75 76 77 77 78
61 61 61 61 61 61 61 61 60 60 60 60 60 59 59 59 58 58 57 57 56 56 55 55 55 54 54 53 53 52 51 51 51 52 52 52 51 50 49 49 50 51 52 52 53 53 54 55 55 56 56 57 58 59 59 60 60 61 62 62 63 64 64 65 66 66 67 68 68 69 70 70 71 71 72 73 73 74 74 75 76 76 77 78 78 79
61 61 61 61 61 61 61 61 61 60 60 60 60 60 60 59 59 58 58 57 57 56 56 55 55 54 54 53 53 52 52 52 52 53 53 54 53 52 52 52 52 53 54 55 55 56 56 57 58 58 59 60 61 61 62 63 63 64 65 65 66 66 67 68 68 69 69 70 71 71 72 73 73 74 74 75 75 76 76 77 77 78 79 79 80 80
61 61 61 61 61 61 61 61 61 61 60 60 60 60 60 59 59 58 58 57 57 56 56 55 55 54 54 54 53 53 52 53 53 54 54 55 55 54 53 53 54 55 56 56 57 57 58 59 60 60 61 62 63 64 64 65 66 66 67 68 68 69 70 70 71 71 72 73 73 74 74 75 75 76 76 77 77 78 78 79 79 80 80 81 81 82
61 61 61 61 61 61 61 61 61 61 60 60 60 60 59 59 59 58 58 57 57 56 56 55 55 54 54 54 54 54 53 53 54 55 56 56 57 56 55 55 55 56 57 58 58 59 60 60 61 62 63 64 64 65 66 67 68 68 69 70 70 71 72 73 73 74 74 75 76 76 77 77 77 78 78 79 79 80 80 80 81 81 82 82 83 83
60 60 60 60 60 60 60 60 60 60 59 59 59 59 58 58 58 57 57 57 56 56 56 56 55 55 55 55 55 55 54 55 55 56 57 58 59 58 57 57 58 58 59 60 60 61 61 62 63 63 64 65 66 67 68 68 69 70 71 71 72 73 74 74 75 76 76 77 77 78 79 79 79 80 80 81 81 81 82 82 83 83 83 84 84 85
59 59 59 59 59 59 59 59 59 59 58 58 58 58 57 57 57 57 57 57 57 57 57 57 57 56 56 56 56 56 56 56 57 58 59 60 61 61 60 60 60 61 62 62 62 63 63 64 65 65 66 67 68 69 69 70 71 71 72 73 74 74 75 76 76 77 78 78 79 79 80 80 81 81 82 82 83 83 83 84 84 85 85 85 86 86
58 58 58 58 58 58 58 58 57 57 57 57 58 58 58 57 57 57 57 57 57 58 58 58 58 58 58 58 58 58 58 58 59 60 61 62 63 63 63 63 63 64 65 65 65 65 66 67 68 68 69 70 70 71 71 72 73 73 74 75 75 76 76 77 78 78 79 79 80 81 81 82 82 83 83 83 84 84 84 85 85 86 86 87 87 88
56 57 57 57 57 57 57 57 57 57 57 58 58 58 58 59 59 59 59 59 59 59 60 60 60 61 61 61 61 61 60 60 61 62 63 64 65 66 66 66 66 67 68 68 68 68 69 70 70 71 72 72 73 73 74 75 75 76 76 77 77 78 78 79 79 80 80 81 81 82 82 83 83 84 84 84 85 85 85 86 86 86 87 87 88 88
56 56 57 57 57 57 58 58 58 58 58 59 59 60 60 60 61 61 61 61 61 61 62 62 63 63 63 63 63 63 63 63 63 64 65 66 67 68 68 68 68 69 70 70 71 71 71 72 73 74 74 75 75 76 76 77 77 78 78 79 79 80 80 81 81 82 82 82 83 83 84 84 84 85 85 85 85 86 86 86 87 87 87 88 88 89
56 57 57 58 58 58 59 59 59 60 60 60 61 61 61 62 62 63 63 63 63 64 64 65 65 65 66 66 66 66 65 65 66 66 67 68 69 70 70 70 70 71 72 73 73 73 73 74 75 75 76 77 77 78 78 79 79 79 80 80 81 81 82 82 82 83 83 84 84 84 85 85 85 85 86 86 86 86 86 87 87 87 88 88 88 89
57 58 58 59 59 60 60 61 61 61 61 62 62 62 63 63 64 64 65 65 65 66 66 67 67 67 68 68 68 68 68 68 68 68 69 70 71 72 72 72 72 73 73 74 75 75 75 75 76 76 77 78 78 78 79 79 80 80 81 81 81 82 82 83 83 83 84 84 84 85 85 85 85 86 86 86 86 86 86 87 87 87 87 88 88 89
59 59 60 60 61 61 62 62 62 63 63 63 64 64 64 65 65 66 66 67 67 67 68 68 69 69 69 70 70 70 70 70 70 70 70 71 73 73 73 74 74 74 74 75 76 77 77 76 76 76 77 78 78 78 79 79 79 80 80 80 81 81 81 82 82 82 83 83 83 84 84 84 84 85 85 85 85 86 86 86 86 86 87 87 87 88
60 60 61 61 62 62 63 63 64 64 65 65 65 65 66 66 67 67 68 68 68 69 69 70 70 70 71 71 72 72 72 72 71 71 72 73 74 74 74 75 75 75 75 76 77 78 78 77 76 76 76 77 77 77 78 78 78 78 79 79 79 79 80 80 80 81 81 81 82 82 82 82 83 83 83 83 84 84 84 84 85 85 85 86 86 87
61 61 62 63 63 64 64 65 65 66 66 66 67 67 67 68 68 69 69 69 70 70 70 71 71 72 72 72 73 73 74 73 73 73 73 74 75 75 75 76 76 76 76 75 76 77 78 78 77 76 75 76 76 76 76 76 76 76 77 77 77 77 77 78 78 78 79 79 79 80 80 80 81 81 81 81 82 82 82 83 83 83 83 84 84 85
62 63 63 64 65 65 66 66 67 67 68 68 68 69 69 69 70 70 70 71 71 71 71 72 72 73 73 73 73 74 74 74 74 74 74 75 75 76 76 76 76 76 76 76 76 76 77 77 77 76 75 74 74 74 74 74 74 75 75 75 76 76 76 76 76 76 77 77 77 77 78 78 78 79 79 79 80 80 80 80 80 81 81 81 82 82
63 64 65 65 66 67 67 68 68 69 69 69 70 70 70 71 71 71 72 72 72 72 72 72 73 73 74 74 74 75 75 74 74 74 74 75 75 76 76 76 76 76 76 75 75 75 75 75 75 75 74 74 73 73 73 73 73 74 74 74 74 74 74 74 74 75 75 75 75 75 76 76 76 76 77 77 77 77 78 78 78 78 78 79 79 80
65 66 66 67 67 68 68 69 69 70 70 71 71 71 72 72 72 72 72 73 73 73 73 73 73 74 74 75 75 75 75 75 75 74 74 75 75 75 75 75 75 74 75 75 74 74 75 74 74 74 74 74 73 72 72 72 72 73 73 73 73 73 73 73 73 73 73 73 73 73 73 73 74 74 74 74 75 75 75 76 76 76 76 76 77 77
66 67 68 68 69 69 70 70 71 71 71 72 72 72 72 73 73 73 73 73 73 73 74 74 74 74 74 74 75 75 75 75 75 74 74 74 74 74 74 74 74 73 73 74 74 74 74 74 74 74 74 74 73 73 72 71 71 71 71 71 71 71 71 71 71 71 71 71 71 71 71 71 72 72 72 72 72 73 73 74 74 74 74 74 74 75
68 69 69 69 70 70 71 71 72 72 72 73 73 73 73 73 74 74 74 74 74 74 74 74 74 74 74 74 75 75 75 75 75 74 73 73 73 73 73 73 72 72 72 73 73 73 73 74 74 74 74 74 73 73 72 71 70 70 70 69 69 69 69 69 69 69 69 69 69 69 69 69 70 70 70 70 71 71 71 72 72 72 72 72 72 72
70 70 71 71 71 72 72 73 73 73 73 74 74 74 74 74 74 74 74 74 74 74 75 75 75 75 75 75 74 74 74 74 74 73 73 72 72 71 72 72 72 72 71 72 72 73 73 73 74 74 73 73 73 72 72 71 70 69 68 68 67 67 67 67 67 67 67 67 67 68 68 68 68 68 68 68 69 69 69 69 69 69 69 69 69 69
71 72 72 73 73 73 74 74 74 74 75 75 75 75 75 75 75 75 75 75 75 75 75 75 75 75 75 74 74 74 73 73 73 72 72 71 71 71 71 71 71 71 71 71 71 72 72 72 73 73 73 73 72 72 71 70 70 69 68 67 66 66 65 65 65 65 65 65 65 65 65 65 65 66 66 66 66 66 67 66 66 66 66 66 66 66
73 73 74 74 74 75 75 75 75 76 76 76 76 76 75 75 75 75 75 75 75 75 75 75 75 74 74 74 73 73 73 72 72 71 71 71 70 70 70 71 71 71 71 71 70 70 71 71 71 71 72 72 72 72 71 70 69 68 68 67 66 65 64 63 63 63 62 62 62 62 62 62 62 62 63 63 63 63 63 63 63 63 63 63 63 63
74 75 75 75 76 76 76 76 77 76 77 77 76 76 76 76 76 75 75 75 75 75 74 75 74 74 73 73 72 72 71 71 71 71 71 70 70 70 70 70 70 70 70 70 70 70 70 70 70 71 71 71 71 71 71 70 69 68 67 66 66 64 63 62 61 60 59 59 58 58 58 58 59 59 59 60 60 60 60 60 60 60 60 60 60 60
75 76 76 77 77 77 77 77 77 77 77 77 77 77 76 76 76 75 75 75 75 74 74 74 74 73 73 72 71 71 70 70 70 70 70 70 70 70 70 70 70 69 69 69 69 69 69 69 70 70 70 71 71 71 70 69 68 67 66 65 64 63 62 60 58 57 56 56 55 55 55 55 56 56 56 57 57 57 57 58 58 58 58 58 58 58
77 77 77 78 78 78 78 78 78 78 78 78 77 77 76 76 76 75 75 75 74 74 74 73 73 72 72 72 71 70 70 69 69 69 70 70 70 70 70 69 69 69 69 69 69 69 69 69 69 69 70 70 70 69 69 68 66 65 64 63 62 62 61 58 56 55 54 53 53 52 52 53 53 54 54 54 55 55 55 55 55 55 55 55 55 56
78 78 78 78 79 79 79 79 79 79 78 78 78 77 76 76 75 75 74 74 74 73 73 73 72 72 71 71 70 70 70 69 69 69 69 69 69 69 69 69 69 69 69 69 69 70 69 69 69 68 68 68 68 67 67 66 65 63 62 61 60 60 59 57 55 54 53 52 51 51 51 51 51 52 52 52 53 53 53 53 53 53 53 53 53 53
78 79 79 79 79 79 80 80 79 79 78 78 77 77 76 75 75 74 74 73 73 73 72 72 71 71 71 70 70 70 69 69 68 68 68 68 68 68 68 68 69 69 69 69 69 69 69 69 68 67 66 66 65 65 64 64 63 62 60 59 58 58 57 55 54 53 52 51 50 49 49 49 50 50 50 51 51 51 51 51 51 51 51 51 51 51
79 79 80 80 80 80 80 80 80 79 79 78 77 76 75 75 74 73 73 73 72 72 72 71 71 70 70 70 70 69 69 69 68 67 67 67 67 67 67 68 68 68 69 68 68 68 67 67 67 66 65 64 63 62 62 61 61 60 59 58 57 56 55 54 53 52 51 50 50 49 48 48 48 49 49 49 49 49 49 49 49 49 49 48 48 49
80 80 80 81 81 81 81 80 80 79 78 78 77 76 75 74 73 73 72 72 71 71 71 70 70 70 70 70 69 69 69 69 68 67 66 66 66 66 67 67 67 67 67 67 67 66 66 65 64 64 63 62 62 61 59 59 58 58 57 56 55 54 53 52 51 51 50 49 49 48 48 48 47 48 48 48 48 48 48 47 47 46 46 46 46 46
80 81 81 81 81 81 81 80 80 79 78 77 76 75 74 73 72 72 71 71 70 70 70 70 69 69 69 69 68 68 68 68 67 66 65 65 65 66 66 66 66 66 66 65 65 64 64 63 62 61 61 60 60 59 58 57 56 55 55 54 53 52 52 51 50 49 49 48 48 48 47 47 47 47 47 47 46 46 46 45 45 44 44 44 44 44
81 81 81 81 81 81 81 80 79 78 77 76 75 74 73 72 71 71 70 70 69 69 69 69 69 69 69 68 68 67 67 66 66 65 65 65 65 65 65 65 64 64 63 63 62 62 62 61 60 59 58 58 57 57 56 55 54 53 53 52 51 51 50 49 48 48 47 47 47 47 47 46 46 46 45 45 45 45 44 43 42 42 41 41 41 42
81 81 82 82 82 81 81 80 79 78 76 75 74 73 72 71 70 69 69 69 68 68 68 68 68 68 68 68 67 66 66 66 65 65 64 64 64 64 64 63 62 62 61 60 60 60 59 59 58 57 56 55 55 55 54 54 53 52 51 50 49 49 48 47 47 47 46 46 46 46 46 45 45 44 44 44 43 43 42 41 41 40 39 39 39 40
81 82 82 82 81 81 80 79 78 77 75 74 73 72 71 70 69 68 68 67 67 67 67 67 67 67 67 67 66 66 65 65 65 65 64 63 63 62 62 61 60 59 58 58 57 57 57 57 56 55 54 53 52 52 52 51 50 49 49 48 47 46 46 46 45 45 45 45 45 45 44 44 43 42 42 41 41 41 40 40 39 38 37 37 38 39
Wind_Direction
308 309 310 311 312 314 315 317 318 320 322 325 327 330 332 335 338 341 343 344 344 343 341 338 334 331 327 322 315 306 294 279 265 253 244 240 239 240 243 245 246 246 245 245 244 244 244 244 244 245 246 247 248 250 252 254 255 257 258 259 259 259 260 260 260 260 261 261 261 261 261 262 262 262 263 263 263 264 264 264 263 263 263 262 262 262
308 309 310 311 312 314 315 317 319 321 323 325 328 330 333 336 339 341 343 345 346 346 345 343 341 338 334 331 327 322 312 299 281 264 250 242 240 241 242 243 243 243 243 243 243 243 243 243 243 243 244 245 246 248 249 251 253 255 257 258 259 260 261 261 262 262 262 263 263 263 263 263 263 263 262 263 263 264 265 265 266 266 266 266 266 265
308 309 310 311 312 313 315 317 319 321 323 325 327 330 333 336 338 341 343 345 346 347 348 347 346 342 339 336 333 329 325 316 303 284 266 253 247 244 243 242 241 240 240 240 241 241 242 242 243 243 243 244 245 246 247 248 250 252 253 255 256 258 259 260 261 262 263 264 264 264 264 263 263 263 262 262 261 262 262 262 263 265 266 266 267 268
308 308 309 311 312 313 315 317 318 320 322 324 326 329 332 334 337 339 341 343 345 347 348 349 348 346 343 339 335 331 327 322 315 303 288 274 263 256 252 250 247 245 244 244 243 244 245 245 245 244 244 244 245 246 246 247 248 249 251 252 254 255 256 258 259 260 261 263 263 264 264 264 263 263 262 262 261 260 260 259 259 260 261 262 264 265
307 308 309 310 311 313 314 316 318 319 321 323 325 327 330 332 335 337 339 341 343 345 347 348 349 348 346 342 338 333 328 322 316 309 300 290 282 274 269 265 262 259 257 255 254 254 253 252 251 249 248 247 247 247 247 248 248 249 250 251 252 254 255 255 256 257 259 260 261 262 263 263 263 262 262 261 261 261 260 260 259 258 258 258 259 260
307 307 308 310 311 312 314 315 317 319 320 322 324 326 328 330 332 334 336 338 340 342 344 346 347 347 346 344 341 336 330 323 316 309 302 295 289 284 279 276 273 271 269 267 266 264 263 261 259 257 255 253 252 251 250 250 250 250 251 251 252 253 254 254 255 256 256 257 258 259 260 260 261 261 261 261 261 261 261 261 261 260 260 259 259 259
306 307 308 309 310 311 313 314 316 318 319 321 322 324 325 327 329 331 333 335 337 339 341 342 344 344 344 343 341 337 332 326 319 312 304 298 292 287 283 279 277 275 273 272 271 269 268 266 264 262 261 259 258 257 255 255 254 254 254 254 254 254 254 255 255 255 255 256 256 257 257 258 258 259 259 259 259 260 260 260 261 261 262 262 261 261
305 306 307 308 309 311 312 314 315 317 318 320 321 322 323 325 326 327 329 331 332 334 336 337 339 340 341 340 339 336 332 328 322 315 308 301 295 290 286 282 279 277 274 272 271 269 268 267 265 264 263 263 262 261 260 260 260 259 259 258 258 257 257 257 257 257 257 256 256 256 257 257 257 257 258 258 259 259 259 260 260 261 261 262 262 263
305 306 306 308 309 310 311 313 314 316 317 318 319 321 322 322 323 324 326 327 328 330 331 332 333 334 335 335 334 332 330 326 322 317 311 305 299 293 289 285 282 278 276 274 271 269 268 266 265 264 263 262 262 262 262 262 262 262 262 261 261 260 260 260 259 259 259 258 258 258 258 258 257 258 258 258 258 259 259 260 260 261 261 262 262 262
304 305 306 307 308 309 311 312 314 315 316 317 318 319 320 320 321 322 323 324 325 326 326 327 327 327 328 328 327 326 324 322 319 315 311 306 301 296 292 287 284 280 278 276 273 271 270 268 266 265 263 262 261 261 261 261 261 261 260 260 260 260 260 260 260 260 260 260 260 259 259 259 259 259 259 259 259 259 260 260 261 261 262 262 262 263
303 304 305 306 307 309 310 311 312 314 315 316 316 317 318 319 319 320 320 321 322 322 322 322 322 322 322 321 320 319 317 315 313 310 307 304 300 297 293 290 286 283 281 278 276 274 273 271 270 268 267 265 264 263 262 261 261 260 260 260 259 259 260 260 260 260 260 260 260 260 260 260 260 260 260 260 260 261 261 261 262 262 262 263 263 263
303 303 304 305 306 308 309 310 311 312 313 314 315 316 316 317 318 318 318 319 319 319 319 319 319 318 317 316 315 314 312 310 308 305 302 300 297 295 292 290 288 285 283 281 279 277 275 274 272 271 270 269 268 267 266 265 264 263 263 262 262 261 261 261 261 261 261 261 261 261 261 261 261 261 261 261 261 261 261 262 262 262 263 263 263 264
302 303 304 305 306 307 308 309 310 311 312 313 314 314 315 315 316 316 316 317 317 317 317 317 316 315 315 314 312 311 309 307 305 302 300 297 295 293 291 289 287 285 284 282 280 278 277 275 274 273 272 271 270 269 269 268 267 267 266 266 265 265 265 265 264 264 264 264 264 263 263 263 263 262 262 262 262 262 262 262 262 262 263 263 263 263
302 303 303 304 305 306 307 308 309 309 310 311 312 313 313 313 314 314 315 315 315 315 315 315 314 314 313 312 311 310 308 307 305 302 300 298 296 294 292 291 289 287 285 284 282 280 279 277 276 274 273 272 271 271 270 269 269 269 268 268 268 267 267 267 267 266 266 266 265 265 265 264 264 264 263 263 263 263 263 263 263 263 263 263 263 263
301 302 303 304 305 305 306 307 308 308 309 310 310 311 311 312 312 313 313 313 313 313 313 313 312 312 311 310 310 308 307 306 305 303 301 299 298 296 295 293 291 290 288 286 285 283 282 280 279 277 276 275 274 273 272 271 270 269 269 268 268 268 268 268 267 267 267 267 267 266 266 265 265 265 264 264 264 264 263 263 263 263 263 263 263 263
301 302 303 303 304 305 306 306 307 307 308 308 309 309 310 310 310 311 311 311 311 311 311 311 310 310 309 309 308 307 306 305 303 302 300 299 298 296 295 294 292 291 289 287 286 285 283 282 281 279 278 277 276 275 274 273 272 271 270 269 269 268 268 268 267 267 267 267 266 266 266 266 265 265 265 265 264 264 264 264 264 264 264 264 264 264
301 302 302 303 304 305 305 306 306 307 307 307 308 308 308 308 308 309 309 309 309 309 309 309 308 308 308 307 306 305 304 303 302 300 298 297 296 295 294 292 290 289 288 286 285 284 283 282 281 280 279 278 277 276 275 274 273 272 271 270 270 269 269 268 268 267 267 266 266 266 266 265 265 265 265 265 265 265 264 264 264 264 264 264 264 264
301 302 303 303 304 304 305 305 306 306 306 307 307 307 307 307 307 307 307 307 307 307 307 306 306 306 306 305 305 304 303 302 300 299 297 296 294 293 292 291 289 288 287 285 284 283 282 281 280 280 279 278 277 276 276 275 274 273 272 272 271 270 270 269 268 268 267 267 266 266 266 265 265 265 265 265 264 264 264 264 264 264 264 264 264 264
302 302 303 303 304 304 304 304 305 305 305 306 306 306 306 306 306 306 305 305 305 305 305 304 304 304 303 303 303 302 301 300 299 298 297 295 294 293 292 291 289 288 287 285 284 283 282 281 281 280 279 278 278 277 276 275 275 274 274 273 272 272 271 270 270 269 269 268 267 267 267 266 266 265 265 265 265 265 265 264 264 264 264 264 264 264
302 302 302 303 303 304 304 304 304 304 305 305 305 305 305 305 305 305 304 304 304 304 303 303 303 302 302 302 301 300 300 299 298 297 296 295 294 293 292 291 289 288 287 286 285 284 283 282 281 280 280 279 278 277 277 276 276 275 274 274 273 273 272 272 271 271 270 270 269 269 268 268 267 267 267 266 266 266 266 266 265 265 265 265 265 265
302 302 302 303 303 303 303 304 304 304 304 304 304 304 304 304 304 304 304 304 303 303 303 302 302 302 302 301 300 300 299 298 297 296 295 294 293 292 292 291 289 288 287 286 285 284 283 282 281 281 280 279 278 278 277 277 276 276 275 275 274 274 273 273 272 272 271 271 271 270 270 270 269 269 269 268 268 268 267 267 267 267 267 267 267 267
301 302 302 302 303 303 303 303 304 304 304 304 304 304 304 304 304 304 304 304 303 303 303 302 302 302 301 301 300 300 299 298 298 297 296 295 294 293 292 291 290 288 287 286 285 285 284 283 282 281 280 280 279 278 277 277 276 276 275 275 275 274 274 273 273 273 272 272 272 272 271 271 271 270 270 270 270 269 269 269 269 269 269 268 268 268
302 302 302 302 303 303 303 303 304 304 304 304 304 304 304 304 304 304 304 304 303 303 303 302 302 302 301 301 300 300 299 299 298 297 296 295 294 294 293 292 291 289 288 287 286 285 285 284 283 282 281 280 279 279 278 277 277 276 276 275 275 274 274 274 273 273 273 273 272 272 272 272 272 271 271 271 271 271 271 270 270 270 270 270 270 270
302 303 303 303 303 304 304 304 304 304 305 304 304 304 304 304 304 304 304 304 304 303 303 303 302 302 301 301 300 300 299 299 298 297 296 296 295 294 293 293 291 290 289 288 287 286 285 284 283 283 282 281 280 279 279 278 277 277 276 276 275 275 274 274 274 274 273 273 273 273 273 272 272 272 272 272 272 272 271 271 271 271 271 271 271 270
304 304 304 304 305 305 305 305 305 305 305 305 305 305 305 304 304 304 304 304 303 303 303 302 302 301 301 301 300 299 299 298 298 297 296 295 295 294 293 293 292 291 290 289 288 287 286 285 284 283 283 282 281 280 280 279 278 278 277 277 276 276 276 275 275 275 274 274 274 274 273 273 273 273 273 272 272 272 272 272 272 271 271 271 271 271
305 305 305 305 306 306 306 306 305 305 305 305 305 305 305 305 304 304 304 303 303 303 303 302 302 301 301 300 300 299 299 298 297 296 296 295 294 294 293 292 292 291 290 289 288 287 287 286 285 284 283 283 282 281 281 280 280 279 279 278 278 277 277 277 276 276 276 275 275 275 274 274 274 273 273 273 273 273 272 272 272 272 272 271 271 271
306 306 306 306 306 306 306 306 306 306 306 305 305 305 305 305 304 304 304 303 303 303 302 302 301 301 300 300 299 299 298 298 297 296 295 295 294 293 293 292 291 291 290 289 288 287 286 286 285 284 284 283 283 282 282 281 281 280 280 279 279 279 278 278 278 277 277 276 276 276 275 275 275 274 274 274 274 273 273 273 272 272 272 272 272 271
307 307 307 307 306 306 306 306 306 306 306 305 305 305 305 305 304 304 304 303 303 303 302 301 301 300 300 299 299 298 298 297 296 296 295 294 293 293 292 292 291 290 289 289 288 287 286 286 285 284 284 283 283 283 282 282 281 281 281 280 280 279 279 279 278 278 277 277 277 276 276 276 275 275 275 275 274 274 274 273 273 273 273 272 272 272
307 307 307 307 307 307 306 306 306 306 306 305 305 305 305 304 304 304 303 303 303 302 302 301 301 300 300 299 298 298 297 297 296 296 295 294 293 292 292 291 291 290 289 289 288 287 286 286 285 285 284 284 283 283 283 282 282 281 281 280 280 279 279 279 278 278 277 277 277 276 276 276 276 275 275 275 275 274 274 274 274 273 273 273 273 273
307 307 307 307 307 307 307 307 306 306 306 306 305 305 305 304 304 303 303 303 302 302 301 301 300 300 299 299 298 298 297 297 296 296 295 294 293 293 292 292 291 290 290 289 289 288 287 287 286 286 285 285 284 284 283 283 282 282 281 281 280 279 279 279 278 278 277 277 277 277 276 276 276 276 276 275 275 275 275 274 274 274 274 274 273 273
308 308 308 308 307 307 307 307 307 307 306 306 306 305 305 304 304 303 303 302 302 301 301 301 300 300 299 299 298 298 297 297 296 296 295 295 294 293 293 293 292 291 291 290 290 289 289 288 288 287 286 286 285 285 284 283 283 282 282 281 280 280 279 279 278 278 278 277 277 277 277 276 276 276 276 276 275 275 275 275 275 274 274 274 274 274
309 308 308 308 308 308 308 308 307 307 307 306 306 305 305 304 304 303 303 302 302 301 301 301 300 300 299 299 298 298 298 297 297 297 296 295 295 294 294 294 293 293 292 292 291 291 291 290 290 289 288 287 286 286 285 284 284 283 282 282 281 281 280 280 279 279 278 278 278 278 277 277 277 277 276 276 276 276 276 275 275 275 275 274 274 274
309 309 309 309 309 308 308 308 308 307 307 306 306 306 305 305 304 304 303 303 302 302 301 301 300 300 299 299 299 298 298 298 298 297 297 296 296 295 295 295 294 294 294 293 293 292 292 291 291 290 289 288 287 287 286 285 285 284 283 283 282 282 281 281 280 280 280 279 279 279 278 278 278 277 277 277 277 276 276 276 275 275 275 275 274 274
310 309 309 309 309 309 308 308 308 307 307 307 306 306 305 305 305 304 304 303 303 302 302 301 301 301 300 300 299 299 299 298 298 298 298 297 297 297 296 296 296 296 295 295 294 294 293 292 292 291 290 289 288 287 287 286 286 285 284 284 283 283 282 282 282 281 281 280 280 280 279 279 279 278 278 277 277 277 276 276 276 275 275 275 274 274
310 310 309 309 309 309 309 308 308 308 307 307 307 306 306 306 305 305 304 304 303 303 302 302 301 301 301 301 300 300 300 299 299 299 299 298 298 298 298 297 297 297 297 296 296 295 294 293 292 292 291 290 289 288 288 287 287 286 285 285 285 284 284 283 283 283 282 282 281 281 280 280 279 279 278 278 278 277 277 277 276 276 275 275 274 274
310 310 310 310 309 309 309 309 308 308 308 308 307 307 307 306 306 305 305 304 304 303 303 302 302 302 301 301 301 301 301 300 300 300 300 300 299 299 299 298 298 298 297 297 296 295 295 294 293 293 292 291 291 290 289 288 287 287 286 286 286 285 285 284 284 284 283 283 282 281 281 281 280 280 279 279 278 278 277 277 276 276 275 275 274 274
311 310 310 310 310 309 309 309 309 309 309 308 308 308 307 307 306 306 306 305 305 304 304 303 303 302 302 302 302 302 301 301 301 301 301 301 301 300 300 299 299 298 298 297 297 296 295 295 294 294 293 292 292 291 290 290 289 288 287 287 286 286 286 285 285 284 284 283 283 282 282 281 281 280 280 279 279 278 278 277 276 276 275 275 274 273
311 311 310 310 310 310 310 310 310 309 309 309 309 309 308 308 307 307 306 306 305 305 304 304 303 303 303 303 303 303 302 302 302 302 302 302 301 301 300 300 299 299 298 298 297 297 296 296 295 295 294 293 293 292 292 291 290 290 289 288 288 287 286 286 285 285 284 284 283 283 282 282 281 281 280 279 279 278 277 277 276 275 275 274 274 273
311 311 311 311 311 311 310 310 310 310 310 310 310 309 309 308 308 307 307 306 306 305 305 304 304 304 304 304 304 304 304 303 303 303 303 303 302 302 301 300 300 299 299 298 298 297 297 296 296 295 295 294 294 293 293 292 292 291 291 290 289 288 287 287 286 285 284 284 283 283 283 282 282 281 280 279 278 278 277 276 275 275 274 274 273 273
311 311 311 311 311 311 311 311 311 311 311 311 310 310 309 309 308 308 307 307 306 306 305 305 305 304 304 304 304 305 305 305 304 304 304 303 303 302 302 301 301 300 300 299 299 298 298 297 297 296 296 295 295 294 294 293 293 293 292 291 291 289 288 287 286 286 285 284 284 283 283 282 281 280 280 279 278 277 276 275 275 274 274 273 273 273
311 311 311 311 311 312 312 312 312 312 311 311 311 310 310 309 309 308 307 307 306 306 306 305 305 305 305 305 305 305 305 305 305 305 304 304 303 303 302 302 301 301 301 300 300 299 298 298 297 297 297 296 296 295 295 295 294 294 293 293 292 291 290 289 288 287 286 285 285 284 283 282 281 280 279 278 277 276 275 275 274 274 273 273 273 272
311 311 312 312 312 312 312 312 312 312 312 311 311 310 310 309 309 308 308 307 307 306 306 306 306 306 306 306 306 306 306 306 306 305 305 304 304 304 303 303 302 302 302 301 301 300 300 299 299 298 298 297 297 296 296 296 295 295 294 294 293 292 291 290 289 288 288 287 286 284 283 282 281 279 278 277 276 276 275 275 274 274 273 273 272 272
311 311 312 312 312 312 312 312 312 312 312 311 311 310 310 309 309 308 308 307 307 307 307 307 307 307 307 307 307 307 307 306 306 306 305 305 305 304 304 304 303 303 303 302 302 301 301 300 299 299 298 298 298 297 297 297 296 296 295 295 294 293 292 292 291 290 289 288 286 285 284 282 281 279 278 277 276 276 275 274 274 274 273 273 273 272
311 311 312 312 312 312 312 312 312 312 312 311 311 310 310 309 309 308 308 308 307 307 307 307 308 308 308 308 308 307 307 307 306 306 306 305 305 305 305 305 305 304 304 304 303 303 302 301 301 300 299 299 299 298 298 298 297 297 296 295 295 294 293 293 292 291 290 288 287 285 284 282 281 280 279 278 277 276 275 275 274 274 273 273 273 272
311 311 312 312 312 312 312 312 312 312 312 311 311 310 310 309 309 308 308 308 308 308 308 308 308 308 308 308 308 308 307 307 306 306 306 306 306 306 306 306 306 306 305 305 304 304 303 303 302 301 301 300 300 299 299 298 298 297 297 296 295 295 294 294 293 292 291 289 288 286 284 283 281 280 279 278 277 276 275 275 274 274 273 273 272 272
311 311 312 312 312 312 312 312 312 312 311 311 310 310 309 309 309 309 308 308 308 308 309 309 309 309 309 309 308 308 308 307 307 307 307 307 307 307 307 307 307 307 306 306 305 305 304 303 303 302 302 301 301 300 300 299 299 298 297 297 296 296 295 295 294 293 292 290 289 287 285 284 282 281 280 279 278 277 276 275 275 274 274 273 273 272
311 311 312 312 312 312 312 312 312 312 311 311 310 310 309 309 309 309 309 309 309 309 309 309 309 309 309 309 308 308 308 307 307 307 308 308 308 308 308 308 308 308 307 307 306 306 305 304 304 303 303 302 302 301 301 300 299 299 298 298 297 297 296 295 294 293 292 291 289 288 286 285 283 282 281 280 279 278 277 276 276 275 275 274 274 273
311 312 312 312 312 312 312 312 312 311 311 311 310 310 309 309 309 309 309 309 309 310 310 310 310 310 309 309 308 308 308 308 308 308 309 309 309 310 310 310 309 309 308 308 307 306 306 305 304 304 304 303 303 302 302 301 301 300 300 299 299 298 297 296 295 294 293 291 290 288 287 286 284 283 282 281 280 280 279 278 278 277 276 275 275 274
311 312 312 312 312 312 312 312 312 311 311 310 310 310 310 310 310 310 310 310 310 310 310 310 310 310 309 309 308 308 308 308 309 309 310 310 311 311 311 311 310 310 309 308 308 307 306 305 305 304 304 304 304 303 303 303 302 302 301 301 300 299 298 297 296 294 293 291 290 289 288 287 286 285 284 283 283 282 281 280 279 279 277 276 275 274
311 312 312 312 312 312 312 312 311 311 310 310 310 310 310 310 310 310 310 310 311 311 311 311 310 310 309 308 308 308 309 309 310 311 311 312 312 312 312 312 311 310 309 309 308 307 307 306 305 305 305 305 305 305 304 304 304 303 303 302 301 300 299 298 296 295 293 292 290 289 288 288 287 287 286 286 285 284 283 282 281 280 278 276 275 273
311 312 312 312 312 312 312 311 311 311 310 310 310 310 310 310 310 310 311 311 311 311 311 311 310 310 309 309 309 309 310 311 311 312 313 313 313 313 313 312 311 311 310 309 308 308 307 306 306 306 306 306 306 306 306 305 305 305 304 303 302 301 300 298 297 295 294 292 291 290 290 289 289 289 289 288 287 286 285 283 282 280 278 276 273 271
Height
10475 10473 10470 10469 10467 10464 10460 10457 10454 10450 10447 10443 10438 10434 10429 10424 10419 10415 10410 10406 10402 10398 10394 10392 10389 10387 10386 10385 10385 10385 10386 10386 10387 10388 10390 10392 10395 10398 10401 10404 10407 10410 10412 10414 10415 10417 10419 10419 10420 10422 10423 10424 10425 10425 10427 10428 10429 10430 10430 10430 10431 10432 10433 10434 10435 10436 10437 10439 10440 10440 10442 10443 10444 10445 10445 10445 10446 10446 10446 10447 10447 10448 10449 10449 10450 10451
10472 10469 10467 10465 10463 10460 10457 10454 10452 10448 10444 10440 10437 10432 10428 10424 10419 10415 10411 10407 10403 10399 10396 10393 10390 10389 10387 10387 10387 10387 10387 10388 10389 10390 10391 10394 10395 10398 10400 10402 10405 10407 10409 10410 10412 10413 10414 10415 10415 10417 10418 10419 10420 10421 10422 10423 10424 10425 10425 10425 10425 10426 10427 10428 10429 10430 10431 10432 10433 10434 10435 10437 10438 10439 10440 10440 10440 10440 10440 10440 10440 10440 10441 10442 10442 10443
10468 10465 10463 10461 10459 10457 10454 10451 10448 10445 10442 10439 10435 10432 10427 10424 10419 10415 10412 10408 10404 10400 10397 10394 10392 10390 10389 10388 10387 10388 10389 10389 10390 10392 10394 10395 10397 10398 10399 10400 10402 10404 10405 10406 10407 10409 10409 10410 10410 10412 10413 10414 10415 10416 10417 10418 10419 10419 10419 10419 10420 10421 10422 10423 10424 10424 10425 10426 10427 10428 10429 10430 10431 10432 10433 10434 10435 10435 10435 10435 10435 10435 10435 10435 10435 10435
10464 10462 10459 10457 10455 10454 10451 10448 10445 10442 10440 10437 10434 10430 10427 10423 10419 10416 10413 10409 10405 10402 10399 10396 10394 10392 10390 10389 10389 10389 10389 10390 10391 10393 10394 10396 10397 10399 10399 10400 10401 10402 10402 10403 10404 10404 10404 10405 10406 10407 10408 10409 10410 10411 10412 10413 10413 10413 10414 10414 10415 10417 10417 10418 10419 10420 10420 10420 10421 10422 10423 10424 10425 10425 10426 10427 10427 10429 10429 10430 10430 10430 10430 10430 10430 10430
10461 10459 10456 10454 10452 10449 10447 10445 10442 10440 10437 10434 10432 10429 10426 10423 10420 10417 10414 10410 10407 10404 10400 10397 10395 10393 10392 10390 10390 10389 10389 10390 10390 10392 10394 10395 10397 10398 10399 10399 10400 10401 10401 10402 10402 10402 10402 10402 10403 10404 10404 10405 10406 10407 10407 10407 10407 10407 10408 10409 10410 10411 10412 10412 10414 10414 10415 10415 10416 10416 10417 10417 10418 10419 10419 10420 10420 10420 10422 10422 10423 10424 10424 10425 10425 10425
10457 10455 10453 10450 10448 10446 10444 10442 10440 10437 10434 10432 10429 10427 10425 10422 10419 10417 10414 10411 10408 10405 10402 10399 10397 10395 10393 10392 10391 10390 10390 10390 10390 10391 10392 10393 10394 10395 10396 10397 10398 10399 10399 10399 10400 10400 10400 10400 10401 10401 10402 10402 10402 10402 10402 10402 10402 10402 10402 10404 10404 10405 10406 10407 10407 10408 10409 10409 10410 10410 10410 10410 10411 10412 10412 10412 10413 10414 10414 10414 10415 10415 10416 10417 10417 10418
10454 10452 10450 10447 10445 10443 10441 10439 10437 10434 10432 10429 10426 10424 10422 10420 10419 10416 10414 10411 10409 10406 10404 10401 10399 10396 10394 10393 10392 10391 10390 10390 10390 10390 10391 10392 10392 10393 10394 10394 10395 10395 10396 10396 10397 10397 10397 10398 10398 10399 10399 10399 10399 10398 10397 10397 10397 10397 10398 10399 10399 10399 10400 10400 10401 10402 10402 10403 10404 10404 10404 10404 10404 10404 10405 10405 10405 10406 10407 10407 10407 10407 10408 10409 10409 10410
10450 10449 10447 10444 10442 10439 10437 10435 10434 10432 10429 10426 10424 10421 10419 10418 10416 10415 10413 10411 10409 10407 10404 10402 10400 10398 10396 10394 10392 10392 10390 10390 10390 10390 10390 10390 10390 10391 10391 10391 10392 10392 10392 10393 10393 10394 10394 10394 10394 10394 10394 10394 10394 10394 10393 10393 10393 10394 10394 10394 10395 10395 10395 10395 10395 10395 10396 10397 10397 10397 10397 10397 10397 10398 10398 10398 10399 10399 10399 10399 10400 10400 10400 10401 10401 10402
10447 10445 10443 10441 10439 10436 10434 10431 10430 10429 10427 10424 10421 10419 10417 10415 10414 10412 10411 10409 10408 10407 10405 10402 10400 10399 10397 10395 10394 10392 10391 10390 10390 10389 10389 10389 10389 10389 10389 10389 10389 10389 10389 10389 10389 10389 10389 10389 10389 10389 10389 10389 10389 10389 10388 10389 10389 10389 10389 10390 10390 10390 10390 10390 10390 10390 10390 10390 10390 10390 10390 10390 10391 10391 10391 10391 10392 10392 10392 10392 10392 10393 10393 10394 10394 10394
10445 10442 10440 10438 10436 10434 10431 10428 10426 10425 10424 10421 10419 10417 10415 10412 10410 10409 10407 10407 10406 10405 10404 10402 10400 10399 10397 10396 10395 10394 10392 10390 10390 10389 10389 10388 10387 10387 10387 10387 10387 10387 10387 10386 10386 10385 10385 10385 10385 10384 10384 10383 10383 10382 10382 10383 10383 10383 10384 10384 10384 10384 10383 10383 10383 10383 10383 10383 10383 10383 10383 10384 10384 10384 10384 10384 10384 10384 10384 10385 10385 10385 10385 10385 10386 10386
10441 10439 10437 10435 10433 10431 10429 10426 10424 10422 10420 10418 10416 10414 10412 10410 10408 10406 10404 10403 10402 10402 10401 10400 10399 10398 10397 10395 10395 10394 10392 10391 10390 10389 10389 10387 10387 10386 10385 10385 10385 10384 10384 10383 10382 10382 10382 10381 10380 10379 10379 10379 10378 10377 10377 10377 10377 10377 10377 10377 10377 10376 10376 10375 10375 10375 10375 10375 10375 10375 10375 10375 10376 10376 10376 10376 10377 10377 10377 10377 10377 10377 10377 10377 10377 10378
10437 10435 10434 10432 10430 10428 10426 10424 10422 10419 10417 10415 10413 10410 10409 10407 10405 10404 10402 10400 10399 10399 10397 10397 10396 10395 10395 10394 10393 10392 10392 10390 10390 10389 10388 10387 10386 10385 10384 10384 10383 10382 10381 10380 10380 10379 10378 10377 10376 10375 10375 10374 10374 10373 10372 10372 10372 10372 10371 10370 10370 10370 10369 10369 10368 10368 10368 10368 10368 10368 10368 10368 10368 10368 10368 10368 10369 10369 10369 10369 10369 10369 10369 10369 10369 10369
10434 10432 10430 10429 10427 10425 10424 10422 10419 10417 10415 10412 10410 10408 10405 10404 10402 10400 10399 10397 10395 10395 10394 10393 10392 10392 10391 10390 10390 10389 10388 10387 10387 10386 10385 10385 10384 10383 10382 10381 10380 10380 10379 10378 10377 10376 10375 10374 10373 10372 10371 10370 10370 10369 10369 10368 10367 10367 10366 10365 10365 10364 10364 10363 10362 10362 10362 10361 10361 10361 10361 10361 10360 10360 10360 10360 10360 10360 10360 10360 10360 10360 10360 10360 10360 10360
10430 10429 10427 10425 10424 10422 10420 10419 10417 10415 10412 10410 10408 10405 10403 10401 10399 10397 10395 10394 10392 10391 10390 10389 10388 10387 10387 10386 10385 10385 10384 10383 10382 10381 10381 10380 10380 10379 10379 10377 10377 10376 10375 10374 10373 10372 10371 10370 10369 10368 10367 10367 10366 10365 10364 10364 10363 10362 10361 10360 10359 10359 10358 10357 10357 10356 10355 10355 10355 10354 10354 10354 10354 10353 10353 10352 10352 10352 10352 10352 10352 10352 10352 10352 10352 10352
10427 10425 10424 10422 10420 10419 10417 10415 10414 10411 10409 10408 10405 10404 10401 10399 10397 10395 10393 10391 10389 10388 10387 10385 10384 10384 10383 10382 10381 10380 10379 10378 10377 10376 10375 10375 10374 10374 10374 10372 10371 10370 10370 10369 10368 10367 10367 10365 10364 10363 10362 10362 10361 10360 10360 10359 10358 10357 10356 10355 10354 10354 10352 10352 10351 10350 10350 10349 10349 10348 10347 10347 10347 10346 10345 10345 10345 10345 10345 10344 10344 10344 10344 10344 10344 10344
10424 10422 10420 10418 10416 10414 10413 10411 10409 10407 10405 10404 10402 10400 10399 10396 10394 10392 10390 10388 10387 10385 10384 10382 10381 10380 10379 10378 10377 10377 10375 10374 10372 10372 10370 10370 10369 10369 10369 10368 10366 10365 10364 10364 10363 10362 10361 10360 10359 10358 10357 10357 10356 10355 10354 10354 10352 10352 10351 10350 10349 10348 10347 10346 10345 10345 10344 10343 10342 10342 10341 10340 10340 10339 10339 10339 10338 10338 10337 10337 10337 10337 10337 10336 10336 10335
10420 10419 10417 10415 10412 10410 10409 10407 10405 10404 10402 10400 10398 10397 10395 10394 10392 10390 10388 10386 10384 10382 10380 10379 10378 10376 10375 10374 10373 10373 10372 10370 10369 10367 10367 10365 10365 10365 10365 10364 10362 10360 10359 10359 10358 10357 10355 10355 10354 10353 10352 10351 10350 10349 10349 10347 10347 10346 10345 10344 10343 10342 10341 10340 10340 10339 10338 10337 10337 10335 10335 10334 10334 10333 10332 10332 10331 10331 10330 10330 10330 10330 10329 10329 10328 10328
10416 10414 10413 10410 10409 10407 10405 10403 10401 10399 10398 10396 10394 10392 10391 10389 10388 10387 10385 10383 10381 10380 10378 10376 10375 10373 10372 10370 10369 10368 10368 10366 10364 10362 10362 10360 10360 10360 10361 10360 10358 10356 10355 10354 10352 10352 10350 10349 10349 10347 10347 10345 10345 10344 10342 10342 10340 10340 10339 10338 10337 10336 10335 10334 10333 10332 10332 10330 10330 10329 10328 10327 10327 10326 10325 10325 10324 10324 10324 10323 10323 10322 10322 10321 10321 10320
10412 10410 10409 10407 10405 10403 10401 10399 10397 10395 10394 10392 10390 10388 10386 10385 10384 10382 10381 10379 10378 10376 10375 10373 10371 10370 10369 10367 10365 10364 10364 10362 10360 10357 10356 10355 10355 10355 10355 10355 10353 10350 10349 10348 10347 10346 10345 10344 10342 10342 10340 10339 10338 10337 10336 10335 10334 10333 10332 10331 10330 10329 10328 10327 10326 10325 10324 10324 10322 10322 10321 10320 10319 10319 10318 10318 10317 10317 10317 10316 10315 10315 10314 10314 10313 10313
10407 10406 10404 10402 10400 10398 10396 10395 10393 10392 10389 10387 10386 10384 10382 10380 10379 10378 10377 10375 10374 10372 10370 10369 10367 10366 10365 10364 10362 10360 10359 10358 10355 10353 10351 10350 10349 10349 10350 10349 10347 10345 10344 10342 10341 10340 10339 10337 10337 10335 10334 10333 10332 10330 10329 10328 10327 10326 10325 10324 10323 10322 10320 10320 10319 10317 10317 10315 10315 10314 10313 10312 10312 10311 10310 10310 10310 10309 10309 10308 10308 10307 10307 10306 10305 10305
10404 10401 10400 10399 10397 10394 10392 10390 10389 10387 10385 10384 10382 10380 10378 10376 10375 10373 10372 10370 10369 10367 10365 10364 10362 10361 10360 10359 10357 10356 10355 10354 10351 10348 10346 10344 10344 10343 10344 10344 10342 10339 10337 10336 10335 10334 10333 10332 10330 10329 10328 10326 10325 10324 10322 10321 10320 10319 10317 10316 10315 10314 10313 10312 10310 10310 10309 10307 10307 10305 10305 10304 10304 10303 10302 10302 10301 10301 10300 10300 10299 10299 10299 10298 10297 10297
10399 10397 10395 10394 10392 10390 10388 10386 10384 10383 10381 10379 10377 10375 10374 10372 10370 10369 10367 10365 10364 10362 10360 10359 10357 10356 10355 10354 10352 10350 10350 10348 10345 10343 10340 10339 10337 10337 10338 10337 10335 10334 10332 10330 10329 10328 10327 10325 10324 10322 10321 10319 10318 10317 10315 10314 10313 10312 10310 10309 10307 10306 10305 10304 10303 10302 10300 10299 10299 10297 10297 10295 10295 10294 10294 10293 10293 10292 10292 10291 10291 10290 10290 10289 10289 10289
10395 10393 10391 10390 10388 10386 10384 10382 10380 10379 10377 10375 10373 10371 10369 10367 10365 10364 10362 10360 10359 10357 10355 10354 10352 10351 10350 10349 10347 10345 10344 10343 10340 10338 10335 10332 10330 10330 10331 10330 10329 10327 10325 10324 10323 10322 10320 10319 10317 10315 10314 10312 10310 10309 10308 10307 10305 10304 10303 10301 10300 10299 10297 10296 10295 10294 10292 10291 10290 10289 10289 10287 10287 10286 10285 10285 10284 10284 10283 10282 10282 10282 10281 10280 10280 10279
10391 10389 10387 10385 10384 10382 10380 10378 10376 10374 10372 10370 10369 10367 10365 10363 10361 10359 10357 10355 10354 10352 10350 10348 10347 10345 10344 10343 10342 10340 10339 10337 10335 10333 10330 10327 10324 10324 10324 10324 10322 10320 10318 10317 10316 10315 10313 10311 10310 10309 10307 10305 10303 10302 10300 10299 10298 10296 10295 10294 10292 10291 10289 10288 10287 10285 10284 10284 10282 10281 10280 10279 10279 10277 10277 10276 10275 10275 10274 10274 10274 10273 10272 10272 10271 10270
10386 10384 10383 10381 10379 10377 10375 10374 10372 10370 10368 10366 10364 10362 10360 10358 10356 10355 10353 10351 10349 10347 10345 10343 10341 10339 10338 10337 10335 10334 10333 10332 10330 10328 10324 10321 10319 10317 10317 10317 10315 10312 10310 10310 10309 10308 10305 10304 10302 10300 10299 10297 10295 10294 10292 10291 10290 10288 10287 10285 10284 10283 10281 10280 10279 10277 10276 10275 10274 10273 10272 10271 10270 10269 10269 10268 10267 10267 10266 10265 10265 10264 10264 10263 10262 10261
10382 10380 10379 10377 10375 10373 10371 10369 10367 10365 10364 10361 10359 10357 10355 10353 10350 10349 10347 10345 10344 10342 10339 10337 10335 10334 10332 10331 10329 10328 10327 10326 10325 10322 10319 10315 10313 10310 10310 10310 10309 10306 10303 10302 10301 10300 10298 10296 10294 10293 10291 10289 10287 10286 10284 10283 10281 10280 10279 10277 10275 10274 10273 10272 10270 10269 10268 10267 10265 10264 10263 10262 10261 10260 10260 10259 10259 10258 10257 10256 10256 10255 10255 10254 10253 10252
10378 10376 10374 10372 10370 10369 10367 10365 10363 10361 10359 10357 10355 10352 10350 10347 10345 10343 10341 10340 10338 10336 10334 10332 10329 10327 10326 10325 10323 10322 10321 10320 10318 10316 10314 10310 10307 10304 10303 10302 10301 10299 10296 10294 10294 10292 10290 10288 10286 10285 10283 10280 10279 10278 10276 10275 10273 10272 10270 10269 10267 10265 10264 10263 10262 10260 10259 10257 10256 10255 10254 10253 10252 10251 10250 10250 10249 10248 10247 10247 10246 10246 10245 10244 10243 10242
10374 10372 10370 10368 10366 10364 10362 10360 10358 10356 10354 10352 10350 10348 10345 10343 10340 10337 10335 10334 10332 10330 10328 10326 10324 10322 10320 10318 10317 10315 10314 10313 10311 10309 10307 10304 10300 10298 10296 10295 10294 10292 10289 10287 10285 10284 10283 10280 10279 10277 10275 10273 10271 10270 10268 10266 10265 10263 10262 10260 10259 10257 10255 10254 10253 10251 10250 10249 10247 10245 10245 10244 10242 10242 10241 10240 10239 10239 10238 10237 10237 10236 10235 10234 10234 10232
10370 10367 10365 10364 10362 10359 10357 10355 10354 10351 10349 10347 10345 10343 10341 10339 10336 10333 10330 10329 10327 10324 10322 10320 10318 10316 10314 10312 10310 10308 10307 10306 10305 10303 10300 10297 10294 10290 10290 10288 10286 10284 10282 10279 10277 10275 10275 10273 10271 10269 10267 10265 10263 10262 10260 10258 10257 10255 10253 10251 10250 10248 10247 10245 10244 10242 10240 10239 10238 10237 10235 10234 10233 10232 10231 10230 10230 10229 10228 10227 10227 10226 10225 10225 10224 10222
10365 10364 10361 10359 10357 10355 10353 10350 10349 10347 10345 10342 10340 10338 10336 10334 10331 10329 10325 10324 10321 10319 10316 10314 10312 10310 10307 10305 10303 10301 10299 10299 10298 10296 10294 10290 10286 10283 10282 10280 10278 10277 10275 10272 10269 10265 10264 10264 10264 10262 10259 10257 10255 10253 10251 10249 10248 10246 10244 10242 10240 10239 10238 10236 10235 10233 10232 10230 10229 10227 10226 10225 10224 10223 10222 10221 10220 10219 10219 10218 10217 10217 10215 10215 10214 10212
10361 10359 10357 10355 10352 10350 10349 10346 10344 10342 10339 10337 10335 10333 10330 10329 10326 10324 10321 10319 10316 10314 10310 10308 10305 10304 10302 10299 10297 10294 10291 10290 10290 10289 10286 10282 10278 10275 10275 10272 10269 10268 10267 10265 10261 10257 10254 10253 10254 10254 10252 10249 10245 10244 10242 10240 10239 10237 10235 10233 10231 10230 10229 10227 10226 10224 10222 10221 10220 10219 10217 10216 10215 10214 10213 10212 10211 10210 10209 10208 10207 10207 10206 10205 10204 10202
10357 10355 10352 10350 10348 10345 10344 10341 10339 10337 10334 10332 10330 10327 10325 10323 10320 10318 10315 10313 10310 10307 10305 10302 10299 10297 10295 10293 10290 10287 10285 10283 10282 10280 10279 10275 10270 10268 10267 10265 10262 10259 10258 10257 10254 10250 10246 10242 10242 10242 10242 10240 10237 10235 10233 10232 10230 10227 10225 10224 10222 10220 10220 10219 10217 10215 10214 10212 10211 10210 10209 10208 10207 10205 10204 10203 10202 10201 10200 10199 10198 10197 10197 10195 10194 10193
10353 10350 10348 10345 10343 10341 10339 10336 10334 10331 10329 10326 10324 10322 10319 10317 10314 10312 10309 10307 10304 10302 10299 10295 10293 10290 10288 10285 10283 10281 10279 10276 10274 10272 10270 10267 10263 10260 10259 10257 10254 10251 10249 10247 10245 10243 10239 10235 10232 10231 10230 10230 10228 10226 10224 10222 10220 10219 10217 10215 10213 10212 10210 10210 10209 10207 10205 10204 10203 10202 10200 10199 10198 10197 10195 10194 10193 10192 10191 10190 10189 10189 10187 10187 10185 10184
10349 10346 10344 10341 10339 10336 10334 10331 10329 10326 10323 10320 10318 10315 10313 10310 10307 10305 10302 10300 10297 10295 10292 10289 10287 10284 10280 10278 10275 10273 10271 10269 10267 10265 10263 10260 10256 10252 10250 10248 10246 10243 10240 10238 10235 10233 10230 10227 10225 10222 10220 10219 10219 10218 10216 10214 10212 10210 10209 10207 10205 10203 10202 10201 10200 10199 10197 10195 10194 10193 10192 10190 10189 10188 10187 10185 10184 10183 10182 10181 10180 10179 10179 10177 10176 10175
10344 10341 10339 10336 10334 10331 10329 10326 10323 10320 10318 10315 10312 10310 10307 10304 10301 10299 10296 10293 10290 10288 10285 10283 10280 10277 10274 10271 10268 10265 10263 10261 10259 10257 10255 10252 10249 10245 10242 10240 10238 10236 10232 10229 10227 10224 10221 10218 10216 10214 10212 10209 10208 10208 10208 10206 10204 10202 10200 10199 10197 10195 10194 10193 10192 10190 10189 10187 10185 10184 10183 10182 10181 10179 10178 10177 10175 10174 10173 10172 10171 10170 10169 10168 10167 10166
10339 10336 10334 10331 10329 10326 10323 10320 10318 10315 10312 10309 10307 10304 10301 10298 10295 10292 10289 10287 10284 10281 10278 10275 10273 10270 10268 10265 10262 10259 10255 10253 10252 10250 10247 10245 10242 10239 10235 10232 10230 10229 10225 10221 10219 10216 10213 10209 10207 10205 10204 10200 10199 10197 10198 10198 10197 10194 10192 10191 10189 10188 10186 10185 10184 10182 10180 10179 10177 10176 10175 10174 10172 10171 10170 10169 10167 10165 10164 10163 10162 10161 10160 10159 10158 10157
10334 10331 10329 10326 10324 10320 10318 10315 10312 10309 10307 10304 10300 10297 10295 10292 10289 10285 10283 10280 10277 10274 10271 10268 10265 10263 10260 10258 10255 10252 10249 10247 10244 10242 10240 10237 10235 10232 10229 10225 10222 10221 10219 10215 10211 10208 10205 10202 10199 10196 10195 10192 10190 10189 10187 10187 10187 10186 10185 10184 10182 10180 10179 10178 10177 10175 10173 10171 10170 10169 10167 10166 10165 10163 10162 10160 10159 10157 10155 10154 10153 10152 10151 10150 10149 10149
10328 10325 10323 10320 10318 10315 10312 10309 10306 10304 10300 10297 10294 10291 10288 10285 10282 10279 10276 10273 10270 10267 10264 10261 10259 10256 10254 10251 10249 10245 10243 10240 10237 10235 10232 10230 10228 10225 10222 10218 10215 10213 10211 10208 10205 10201 10198 10195 10192 10189 10186 10184 10182 10180 10179 10178 10177 10177 10176 10175 10174 10173 10172 10170 10169 10168 10166 10164 10162 10161 10160 10159 10157 10155 10154 10152 10150 10149 10147 10146 10145 10144 10143 10142 10141 10140
10323 10320 10317 10315 10312 10309 10306 10303 10300 10297 10294 10291 10288 10285 10282 10279 10275 10272 10270 10267 10264 10260 10257 10255 10252 10249 10246 10244 10241 10239 10236 10233 10230 10228 10225 10223 10220 10218 10215 10211 10208 10205 10203 10200 10198 10195 10192 10188 10185 10182 10179 10175 10173 10172 10170 10169 10169 10168 10167 10166 10165 10165 10164 10163 10162 10160 10159 10157 10156 10154 10153 10152 10150 10148 10146 10144 10143 10141 10139 10138 10137 10136 10135 10134 10133 10132
10317 10314 10312 10309 10306 10303 10300 10297 10294 10291 10288 10285 10282 10279 10275 10272 10269 10266 10263 10260 10257 10254 10251 10248 10245 10242 10240 10237 10235 10232 10229 10227 10224 10221 10218 10215 10213 10210 10208 10205 10201 10198 10195 10193 10190 10188 10185 10181 10178 10175 10172 10169 10166 10163 10162 10160 10160 10159 10159 10157 10155 10155 10155 10155 10154 10153 10152 10150 10149 10147 10146 10144 10143 10140 10139 10137 10135 10133 10132 10130 10129 10129 10128 10127 10126 10125
10312 10309 10305 10303 10300 10297 10294 10291 10288 10285 10282 10279 10275 10272 10269 10265 10262 10259 10256 10253 10250 10247 10245 10242 10239 10235 10233 10231 10229 10226 10224 10220 10217 10214 10211 10209 10205 10203 10200 10197 10195 10192 10189 10185 10183 10180 10178 10175 10171 10168 10165 10162 10159 10156 10154 10153 10152 10151 10150 10148 10147 10146 10145 10145 10145 10145 10144 10143 10142 10140 10139 10137 10135 10133 10131 10129 10127 10126 10125 10124 10122 10122 10121 10120 10120 10119
10306 10303 10300 10297 10294 10291 10288 10285 10282 10279 10275 10272 10269 10265 10262 10259 10256 10253 10250 10247 10244 10240 10238 10235 10232 10229 10226 10224 10222 10220 10217 10214 10211 10208 10205 10202 10199 10196 10193 10190 10188 10185 10182 10179 10175 10173 10171 10168 10165 10161 10158 10155 10152 10149 10147 10145 10144 10144 10142 10140 10139 10137 10136 10137 10137 10137 10136 10135 10134 10134 10131 10129 10127 10125 10124 10122 10120 10119 10118 10117 10116 10115 10115 10114 10114 10113
10300 10297 10294 10292 10289 10285 10282 10279 10276 10272 10269 10266 10262 10259 10256 10254 10250 10247 10244 10240 10237 10234 10231 10229 10226 10224 10220 10217 10215 10212 10210 10209 10205 10202 10199 10195 10192 10189 10186 10184 10181 10178 10175 10172 10169 10165 10163 10160 10158 10155 10152 10149 10145 10143 10140 10138 10137 10135 10134 10133 10132 10129 10128 10128 10129 10129 10129 10127 10127 10125 10124 10122 10120 10118 10117 10115 10114 10113 10112 10111 10110 10109 10109 10108 10107 10107
10295 10292 10289 10286 10283 10280 10276 10273 10270 10267 10264 10260 10257 10253 10250 10247 10244 10241 10237 10234 10231 10228 10225 10222 10220 10217 10214 10212 10209 10206 10204 10202 10199 10197 10194 10190 10187 10184 10180 10177 10174 10172 10169 10165 10162 10158 10155 10152 10150 10148 10145 10142 10139 10136 10134 10132 10130 10128 10127 10126 10125 10123 10121 10120 10120 10120 10120 10120 10119 10118 10117 10115 10113 10111 10110 10109 10108 10107 10106 10105 10104 10104 10103 10103 10102 10102
10289 10286 10283 10280 10277 10274 10270 10267 10264 10260 10257 10254 10250 10247 10244 10241 10238 10235 10232 10229 10225 10222 10219 10217 10214 10210 10207 10205 10203 10200 10197 10195 10193 10190 10188 10185 10182 10179 10175 10172 10168 10165 10162 10159 10155 10152 10148 10145 10142 10140 10138 10135 10133 10130 10128 10125 10124 10122 10120 10119 10118 10117 10115 10115 10114 10113 10112 10112 10111 10110 10109 10108 10107 10105 10104 10102 10102 10100 10100 10099 10099 10099 10098 10097 10097 10096
10284 10280 10277 10274 10271 10268 10264 10261 10258 10255 10251 10248 10245 10242 10239 10235 10232 10229 10226 10223 10220 10216 10214 10211 10209 10205 10202 10199 10196 10194 10191 10189 10186 10184 10182 10179 10176 10173 10170 10166 10162 10159 10155 10151 10148 10145 10142 10139 10135 10133 10131 10129 10127 10125 10123 10120 10118 10115 10114 10113 10112 10110 10109 10109 10107 10106 10105 10104 10104 10103 10102 10101 10100 10099 10098 10097 10095 10095 10094 10094 10094 10094 10093 10093 10092 10092
10278 10275 10272 10269 10265 10262 10259 10255 10252 10249 10245 10242 10239 10236 10233 10230 10227 10223 10220 10217 10215 10211 10208 10205 10202 10200 10197 10194 10190 10188 10185 10182 10180 10178 10176 10174 10170 10167 10164 10160 10157 10153 10149 10145 10142 10139 10135 10133 10130 10127 10125 10122 10120 10118 10117 10115 10112 10110 10109 10107 10106 10105 10104 10102 10101 10100 10099 10097 10097 10096 10095 10095 10094 10093 10092 10091 10090 10089 10089 10089 10089 10089 10089 10089 10088 10087
10272 10269 10265 10262 10259 10255 10252 10249 10246 10243 10239 10236 10233 10230 10227 10224 10221 10218 10214 10212 10209 10206 10203 10199 10197 10194 10190 10187 10185 10182 10180 10177 10174 10172 10170 10168 10165 10162 10159 10155 10151 10147 10144 10140 10136 10133 10130 10127 10124 10122 10120 10117 10115 10112 10110 10109 10107 10105 10104 10102 10100 10099 10097 10096 10095 10094 10093 10092 10090 10090 10089 10088 10087 10087 10086 10085 10085 10084 10084 10084 10084 10084 10084 10084 10084 10083
10267 10263 10260 10257 10253 10250 10246 10243 10240 10237 10234 10230 10227 10224 10221 10219 10216 10213 10210 10206 10204 10200 10197 10194 10190 10187 10184 10182 10179 10177 10174 10172 10169 10167 10165 10162 10159 10156 10152 10149 10145 10142 10138 10135 10131 10128 10124 10121 10119 10117 10115 10112 10110 10107 10105 10103 10102 10100 10099 10097 10095 10094 10092 10090 10089 10088 10087 10085 10085 10084 10083 10082 10082 10081 10080 10080 10079 10079 10079 10079 10079 10079 10079 10079 10079 10077
10260 10257 10254 10250 10247 10244 10240 10237 10234 10230 10227 10225 10222 10219 10215 10213 10210 10208 10205 10202 10199 10195 10192 10189 10185 10182 10179 10175 10173 10171 10169 10166 10164 10161 10159 10157 10154 10150 10147 10144 10140 10137 10133 10130 10126 10123 10119 10116 10114 10112 10110 10109 10106 10103 10100 10098 10097 10095 10094 10092 10090 10089 10087 10085 10084 10082 10081 10080 10079 10078 10077 10077 10077 10076 10076 10075 10075 10074 10074 10074 10074 10074 10074 10074 10074 10072
10255 10252 10248 10245 10242 10238 10234 10231 10228 10225 10222 10219 10216 10213 10210 10207 10205 10202 10200 10197 10194 10190 10187 10184 10180 10177 10174 10170 10168 10165 10163 10161 10158 10155 10153 10151 10148 10145 10142 10139 10135 10132 10129 10125 10121 10118 10115 10111 10108 10106 10105 10105 10103 10100 10096 10094 10092 10091 10089 10087 10086 10084 10082 10080 10079 10077 10076 10075 10074 10073 10073 10072 10072 10072 10072 10071 10070 10069 10069 10068 10068 10069 10069 10069 10068 10067